Location: Unspecified
(50.7693°N, 0.0000°E)
Time: 20:10:06
(UTC+00:00)

Vanguard 1 - Pass Details

Date: 18 June 2019
Orbit: 655 x 3829 km, 34.2° (Epoch: 20 August)

Event Time Altitude Azimuth Distance (km) Brightness Sun altitude
Exits shadow 02:10:37 - 191° (S) 5,990 13.5 -10.5°
Reaches altitude 10° 02:12:03 10° 188° (S) 5,707 13.4 -10.4°
Maximum altitude 02:20:31 17° 156° (SSE) 4,348 13.0 -9.7°
Drops below altitude 10° 02:26:56 10° 122° (ESE) 4,159 13.3 -9.2°
Sets 02:31:13 0° 102° (ESE) 4,630 13.8 -8.8°
